TimeEDT,TemperatureF,Dew PointF,Humidity,Sea Level PressureIn,VisibilityMPH,Wind Direction,Wind SpeedMPH,Gust SpeedMPH,PrecipitationIn,Events,Conditions,WindDirDegrees,DateUTC
12:53 AM,39.0,32.0,76,30.04,10.0,East,5.8,-,N/A,,Overcast,80,2014-03-21 04:53:00
1:53 AM,39.0,30.9,73,30.03,10.0,East,5.8,-,N/A,,Clear,90,2014-03-21 05:53:00
2:53 AM,37.0,30.0,76,30.03,10.0,Calm,Calm,-,N/A,,Partly Cloudy,0,2014-03-21 06:53:00
3:53 AM,39.0,30.0,70,30.01,10.0,ESE,10.4,-,N/A,,Clear,110,2014-03-21 07:53:00
4:53 AM,39.9,30.9,70,30.00,10.0,ESE,8.1,-,N/A,,Overcast,110,2014-03-21 08:53:00
5:53 AM,41.0,32.0,70,29.99,10.0,ESE,9.2,-,N/A,,Overcast,110,2014-03-21 09:53:00
6:53 AM,39.9,32.0,73,29.99,10.0,ESE,6.9,-,N/A,,Overcast,120,2014-03-21 10:53:00
7:53 AM,36.0,30.0,79,29.99,10.0,ESE,5.8,-,N/A,,Scattered Clouds,110,2014-03-21 11:53:00
8:53 AM,41.0,32.0,70,29.99,10.0,SE,8.1,-,N/A,,Partly Cloudy,140,2014-03-21 12:53:00
9:53 AM,48.0,30.9,52,29.99,10.0,SSE,9.2,-,N/A,,Clear,150,2014-03-21 13:53:00
10:53 AM,51.1,30.0,44,29.99,10.0,South,6.9,-,N/A,,Clear,190,2014-03-21 14:53:00
11:53 AM,55.9,30.9,39,29.97,10.0,SSW,10.4,-,N/A,,Clear,210,2014-03-21 15:53:00
12:53 PM,61.0,33.1,35,29.94,10.0,SSW,13.8,19.6,N/A,,Clear,210,2014-03-21 16:53:00
1:53 PM,64.9,33.1,31,29.91,10.0,SW,10.4,19.6,N/A,,Clear,220,2014-03-21 17:53:00
2:53 PM,69.1,32.0,25,29.87,10.0,SW,19.6,-,N/A,,Clear,220,2014-03-21 18:53:00
3:53 PM,70.0,30.9,24,29.85,10.0,SW,19.6,26.5,N/A,,Clear,220,2014-03-21 19:53:00
4:53 PM,70.0,32.0,25,29.83,10.0,SSW,20.7,29.9,N/A,,Clear,210,2014-03-21 20:53:00
5:53 PM,70.0,30.9,24,29.81,10.0,SW,19.6,27.6,N/A,,Clear,230,2014-03-21 21:53:00
6:53 PM,66.9,32.0,27,29.81,10.0,SW,15.0,-,N/A,,Clear,220,2014-03-21 22:53:00
7:53 PM,63.0,34.0,34,29.81,10.0,South,12.7,-,N/A,,Clear,190,2014-03-21 23:53:00
8:53 PM,60.1,33.1,36,29.81,10.0,SSW,11.5,-,N/A,,Clear,200,2014-03-22 00:53:00
9:53 PM,59.0,30.9,35,29.81,10.0,SSW,15.0,-,N/A,,Clear,200,2014-03-22 01:53:00
10:53 PM,57.0,30.0,36,29.81,10.0,SSW,10.4,-,N/A,,Clear,210,2014-03-22 02:53:00
11:53 PM,55.0,30.0,38,29.79,10.0,South,10.4,-,N/A,,Scattered Clouds,190,2014-03-22 03:53:00